Location: *
(4.2733°N, 54.3817°W)
Time: 22:50:55
(UTC+00:00)

Daily predictions for brighter satellites

Satellite Brightness Start Highest point End
(mag) Time Altitude Azimuth Time Altitude Azimuth Time Altitude Azimuth
Maqsat-B 4.0 21:38:39 10° WSW 21:42:30 50° SSE 21:54:10 10° E
BLOCK DM-SL R/B 3.7 21:48:31 10° W 21:56:55 57° S 22:00:58 10° ESE
Cosmos 1048 Rocket 4.3 21:52:05 10° N 21:57:09 49° ENE 22:02:17 10° SSE
ARIANE 5 R/B 3.3 21:54:29 10° WSW 21:57:42 18° SSW 21:59:29 10° SE
Cosmos 2151 Rocket 3.9 21:54:10 10° SSE 21:58:25 44° E 22:02:37 10° NNE
Okean-O 4.0 22:06:16 10° S 22:10:27 42° WSW 22:14:38 10° NNW
Cosmos 1300 Rocket 3.4 22:06:22 10° S 22:10:42 70° E 22:14:59 10° N
Lacrosse 5 rocket 2.3 22:09:59 10° S 22:12:47 21° ESE 22:14:49 14° ENE
NOSS 3-1 (A) 4.3 22:05:06 10° NNW 22:13:48 86° ENE 22:22:39 10° SSE
CSL-04 Debris 4.4 22:09:29 10° SSE 22:14:39 48° ENE 22:19:48 10° N
CSL-04 Rocket 3.9 22:09:57 10° SSE 22:15:07 49° ENE 22:20:20 10° N
Cosmos 1066 Rocket 4.2 22:10:40 10° N 22:16:07 64° E 22:21:43 10° SSE
SEDSat Delta rocket 3.5 22:12:37 10° NW 22:16:24 37° NNE 22:19:09 16° E
ARIANE 5 DEB (SYLDA) 3.6 22:08:05 10° W 22:16:33 80° N 22:19:31 16° E
Ariane H10-3 4.0 22:16:30 10° S 22:17:09 11° SSE 22:17:51 10° SSE
Cosmos 1709 Rocket 4.0 22:11:27 10° N 22:17:45 71° E 22:24:06 10° S
Meteor 1-12 Rocket 4.3 22:15:08 10° S 22:20:55 58° E 22:26:34 10° NNE
Cosmos 1975 4.0 22:19:00 10° SSW 22:22:49 45° W 22:26:37 10° NNW
SAR-Lupe-2 3.5 22:19:47 10° NNE 22:23:18 63° ESE 22:26:49 10° S
Envisat 3.2 22:19:25 10° S 22:24:30 76° WSW 22:29:33 10° NNW
ASC 2 Rocket 4.1 22:15:55 10° WSW 22:24:36 73° SSE 22:29:06 17° ENE
CZ-2D R/B 4.2 22:22:35 12° SE 22:25:19 25° ENE 22:28:29 10° NNE
YAOGAN 6 2.4 22:22:00 10° SSE 22:25:33 80° ENE 22:29:08 10° N
deb Ariane 2.4 22:27:40 10° W 22:30:03 88° N 22:32:41 22° E
ARIANE 5 DEB (SYLDA) 2.4 22:27:40 10° W 22:31:58 66° S 22:33:09 33° ESE
Centaur D-1AR AC-41 4.3 22:13:08 10° WSW 22:36:22 68° SSE 22:39:34 24° E
Lacrosse 4 Rocket 3.4 22:35:35 10° NNE 22:36:16 12° NE 22:36:16 12° NE
SWIFT 4.4 22:35:52 10° NNW 22:38:16 15° NNE 22:39:39 13° NE
Maqsat-H 3.4 22:35:27 10° WSW 22:40:19 69° SSE 22:51:27 23° E
Okean 2 3.2 22:38:34 10° N 22:42:38 71° E 22:46:45 10° S
Cosmos 2322 Rocket 2.2 22:37:40 10° N 22:43:09 57° ENE 22:48:31 11° SSE
Cosmos 1975 Rocket 4.1 22:41:27 10° NNW 22:45:43 48° W 22:49:58 10° SSW
NOAA 11 4.4 22:40:39 10° SSE 22:45:54 47° ENE 22:51:08 10° N
CZ-4 R/B 3.0 22:44:14 10° SSW 22:47:44 34° W 22:51:14 10° NW
APEX 3.0 22:45:46 10° NNW 22:48:25 54° WSW 22:49:19 33° SSW
Ariane H10 2.8 22:46:32 10° WSW 22:48:17 25° SSW 22:48:17 25° SSW
Okean 1 Rocket 2.9 22:44:36 10° S 22:48:56 78° E 22:53:14 10° N
Cosmos 494 Rocket 4.0 22:49:32 10° NNW 22:54:46 81° WSW 23:00:01 10° S
ARIANE 5 R/B 2.8 22:52:37 10° WSW 22:55:26 50° SSE 22:57:42 33° ESE
Cosmos 2219 3.2 22:55:04 10° SSW 23:00:48 84° WNW 23:06:32 10° NNE
GPS 2-18 Rocket1 3.5 22:57:34 10° WNW 23:00:48 48° N 23:00:48 48° N
Sylda 5 1.7 23:00:29 10° W 23:04:07 78° S 23:04:17 75° SE
Cosmos 2227 Rocket 2.2 22:59:28 10° S 23:04:55 51° ESE 23:05:04 51° E
USA 32 4.1 23:00:51 10° N 23:06:04 76° W 23:11:18 10° S
Spelda 3.2 23:00:18 10° W 23:06:37 85° WSW 23:06:37 85° WSW
Ariane Rocket 2.8 23:02:23 14° SSE 23:06:45 83° ENE 23:11:48 10° N
ADEOS Rocket 3.5 22:59:09 10° NNE 23:06:47 63° ESE 23:14:23 10° S
CZ-3 Stage 3 3.7 23:04:49 10° W 23:09:04 17° NW 23:11:10 11° N
Meteor 1-21 4.2 23:03:38 10° N 23:09:09 58° E 23:09:32 56° ESE
Cosmos 2056 Rocket 3.4 23:04:38 10° S 23:09:58 67° ESE 23:11:01 54° NE
ISS -0.7 23:09:13 10° W 23:10:58 14° NW 23:12:42 10° NNW
GP-B 3.6 23:06:58 10° N 23:11:18 58° W 23:15:41 10° SSW
Cosmos 2184 Rocket 3.8 23:07:13 10° N 23:13:28 76° E 23:19:48 10° S
Cosmos 2084 Rocket 3.6 23:09:46 10° SSW 23:14:09 74° WNW 23:14:26 71° NNW
Cosmos 2360 Rocket 2.9 23:10:24 10° N 23:14:12 38° NNE 23:14:12 38° NNE
ASTEX 1 3.3 23:11:08 10° N 23:16:00 82° W 23:20:54 10° S
Cosmos 2297 Rocket 2.0 23:10:42 10° S 23:16:21 76° ESE 23:17:14 62° NE
OAO 1 4.5 23:16:44 10° NW 23:21:54 71° N 23:21:54 71° N
Cosmos 1624 Rocket 3.9 23:17:35 10° SSW 23:22:50 82° WNW 23:23:36 64° N
ARIANE 44L R/B 3.1 23:05:39 10° W 23:23:21 85° S 23:23:42 78° ESE
BREEZE-M DEB (TANK) 4.4 23:07:05 10° SW 23:24:12 80° NW 23:26:00 47° NNE
CZ-3B R/B 4.1 22:44:00 10° WNW 23:25:04 80° NNE 23:28:52 49° ESE
Cosmos 1939 Rocket 4.2 23:27:18 36° WSW 23:27:30 36° W 23:31:06 10° NNW
SL-16 R/B 3.7 23:27:12 10° NW 23:32:13 33° WSW 23:37:15 10° SSW
CZ-3B R/B 4.0 23:23:10 10° SW 23:37:58 34° SSE 23:39:17 33° SSE
ARIANE 5 R/B 4.1 23:44:08 10° WSW 23:45:01 14° WSW 23:45:01 14° WSW
Lacrosse 5 rocket 4.4 23:50:19 10° W 23:50:37 11° WNW 23:50:37 11° WNW
USA 267 3.4 23:52:24 70° W 23:52:24 70° W 23:58:22 10° SW
